Weather reports worldwide

Advertisment
San Clemente, Spain (8256): temperature & dewpoint: 14.10.2018 16:00:00 - 20.10.2018 16:00:00 (CEST)San Clemente, Spain (8256): wind speed & gusts: 14.10.2018 16:00:00 - 20.10.2018 16:00:00 (CEST)San Clemente, Spain (8256): wind direction: 14.10.2018 16:00:00 - 20.10.2018 16:00:00 (CEST)San Clemente, Spain (8256): reduced air pressure: 14.10.2018 16:00:00 - 20.10.2018 16:00:00 (CEST)San Clemente, Spain (8256): visibility: 14.10.2018 16:00:00 - 20.10.2018 16:00:00 (CEST)San Clemente, Spain (8256): sunshine duration: 14.10.2018 16:00:00 - 20.10.2018 16:00:00 (CEST)San Clemente, Spain (8256): precipitation: 14.10.2018 16:00:00 - 20.10.2018 16:00:00 (CEST)
Date & Time tt [°C] td [°C] ff [km/h] ff [kn] fx [km/h] fx [kn] dd ppp [hPa] vv [km] sd [min] rr [mm]
20.10.2018 16:00:00 - - - - - - - - - - -
20.10.2018 15:00:00 18,6 13,1 26 14 42 23 S 1017,5 20 16 0,0
20.10.2018 14:00:00 18,8 12,5 29 16 45 25 S 1017,6 20 30 -
20.10.2018 13:00:00 16,9 12,2 23 12 42 23 S 1018,9 20 24 0,0
20.10.2018 12:00:00 16,7 12,2 23 12 38 21 S 1018,6 20 36 0,0
20.10.2018 11:00:00 15,9 12,6 24 13 39 21 S 1018,7 20 20 0,0
20.10.2018 10:00:00 14,3 12,3 22 12 44 24 S 1018,1 20 0 0,0
20.10.2018 09:00:00 13,9 12,3 27 15 42 23 SSE 1017,2 20 0 0,0
20.10.2018 08:00:00 13,3 12,2 23 12 33 18 SSE 1017,2 19 0 -
20.10.2018 07:00:00 13,0 12,1 16 8 23 12 S 1017,6 15 0 0,0
20.10.2018 06:00:00 13,3 12,3 12 6 25 14 SSW 1017,4 9 0 0,0
20.10.2018 05:00:00 13,3 12,0 14 8 29 16 SSW 1017,3 12 0 0,0
20.10.2018 04:00:00 13,5 12,2 19 10 27 15 S 1016,9 12 0 0,0
20.10.2018 03:00:00 13,6 12,5 13 7 32 18 S 1016,7 11 0 0,4
20.10.2018 02:00:00 13,8 12,8 14 8 23 13 S 1016,6 2,2 0 -
20.10.2018 01:00:00 13,5 12,7 14 8 19 11 S 1016,3 13 0 0,0
20.10.2018 00:00:00 13,5 12,4 12 7 24 13 S 1016,5 20 0 0,0
19.10.2018 23:00:00 13,9 12,4 16 9 25 13 SSE 1016,0 20 0 0,0
19.10.2018 22:00:00 14,2 12,4 17 9 24 13 SSE 1015,0 20 0 0,0
19.10.2018 21:00:00 14,0 12,7 11 6 16 9 SSE 1014,5 20 0 0,0
19.10.2018 20:00:00 - - - - - - - - - - -
19.10.2018 19:00:00 15,2 13,4 14 8 19 11 SSE 1012,4 20 0 0,0
19.10.2018 18:00:00 15,3 13,4 10 5 15 8 S 1012,1 20 1 0,2
19.10.2018 17:00:00 15,0 13,9 8 4 14 8 S 1012,0 20 12 3,0
19.10.2018 16:00:00 15,0 13,2 7 4 13 7 SW 1012,1 20 0 0,2
19.10.2018 15:00:00 14,8 12,6 7 4 13 7 SE 1012,0 17 0 0,0
19.10.2018 14:00:00 13,8 12,3 8 4 14 8 ESE 1013,0 8 0 -
19.10.2018 13:00:00 12,4 11,3 8 4 16 8 SE 1013,8 20 0 1,6
19.10.2018 12:00:00 12,0 11,1 10 5 14 8 ESE 1013,5 3,6 0 2,2
19.10.2018 11:00:00 12,1 10,9 6 3 12 7 E 1013,3 11 0 0,0
19.10.2018 10:00:00 11,7 9,9 5 3 23 12 ESE 1012,9 20 0 0,0
19.10.2018 09:00:00 10,8 9,4 8 5 15 8 ESE 1012,5 20 0 0,0
19.10.2018 08:00:00 11,7 9,9 5 3 17 9 SSE 1011,2 13 0 -
19.10.2018 07:00:00 11,2 10,4 6 3 11 6 SSW 1011,5 20 0 0,0
19.10.2018 06:00:00 10,8 9,7 4 2 11 6 S 1011,5 20 0 0,0
19.10.2018 05:00:00 11,6 10,3 5 3 10 6 S 1011,1 16 0 0,0
19.10.2018 04:00:00 11,6 10,2 4 2 11 6 S 1010,9 20 0 0,0
19.10.2018 03:00:00 11,3 9,9 3 2 8 4 WSW 1010,9 20 0 0,0
19.10.2018 02:00:00 11,5 10,0 6 3 10 5 ESE 1010,6 16 0 -
19.10.2018 01:00:00 12,0 10,8 6 4 10 5 ESE 1010,6 18 0 0,0
19.10.2018 00:00:00 12,3 10,8 4 2 13 7 SW 1010,8 20 0 0,0
18.10.2018 23:00:00 12,1 10,6 5 3 8 4 SSW 1011,0 20 0 0,0
18.10.2018 22:00:00 12,8 10,9 4 2 8 4 E 1010,2 20 0 0,0
18.10.2018 21:00:00 13,0 10,8 4 2 9 5 S 1009,8 20 0 0,0
18.10.2018 20:00:00 13,0 10,4 5 3 14 8 E 1009,5 18 0 -
18.10.2018 19:00:00 12,9 10,0 9 5 34 18 SE 1009,3 4,5 0 0,4
18.10.2018 18:00:00 13,7 9,3 16 9 44 24 ESE 1008,9 12 0 0,0
18.10.2018 17:00:00 13,4 10,8 28 15 54 29 SE 1008,6 12 0 0,2
18.10.2018 16:00:00 14,7 10,8 26 14 39 21 SSE 1009,2 2,3 0 0,0
18.10.2018 15:00:00 15,9 10,2 28 15 46 25 SSE 1009,4 20 0 0,0
18.10.2018 14:00:00 17,4 9,8 23 12 34 19 S 1008,8 20 0 -
18.10.2018 13:00:00 18,0 9,8 19 10 39 21 S 1008,9 20 24 0,0
18.10.2018 12:00:00 17,3 9,9 18 10 31 17 S 1009,3 20 60 0,0
18.10.2018 11:00:00 15,9 10,0 13 7 24 13 S 1009,7 15 43 0,0
18.10.2018 10:00:00 13,9 10,2 10 5 20 11 S 1010,3 6 13 0,0
18.10.2018 09:00:00 11,9 9,7 7 4 10 5 SSE 1010,9 16 12 0,0
18.10.2018 08:00:00 11,5 9,2 8 5 12 6 SSE 1010,7 14 0 -
18.10.2018 07:00:00 11,8 8,8 6 3 11 6 SSE 1011,1 17 0 0,0
18.10.2018 06:00:00 12,0 9,2 9 5 13 7 SSE 1010,9 15 0 0,0
18.10.2018 05:00:00 11,4 8,4 4 2 14 8 ESE 1011,2 11 0 0,0
18.10.2018 04:00:00 11,9 8,9 10 5 14 8 SE 1011,7 13 0 0,0
18.10.2018 03:00:00 12,2 8,7 8 5 16 9 S 1012,6 18 0 0,0
18.10.2018 02:00:00 12,8 8,3 9 5 23 12 S 1013,0 18 0 -
18.10.2018 01:00:00 13,2 8,1 10 6 20 11 S 1013,3 20 0 0,0
18.10.2018 00:00:00 10,5 3,6 6 4 8 5 ESE 1014,6 6 0 0,0
17.10.2018 23:00:00 11,7 3,4 4 2 5 3 SE 1014,5 11 0 0,0
17.10.2018 22:00:00 13,0 4,1 3 2 7 4 ESE 1014,0 16 0 0,0
17.10.2018 21:00:00 15,7 5,3 3 2 5 3 N 1012,9 3,5 0 0,0
17.10.2018 20:00:00 17,7 5,9 5 3 14 8 NW 1012,1 10 9 -
17.10.2018 19:00:00 20,2 5,8 12 7 19 11 NNW 1011,0 20 42 0,0
17.10.2018 18:00:00 21,4 6,5 8 4 21 11 N 1010,9 20 51 0,0
17.10.2018 17:00:00 21,8 6,8 10 5 18 10 NNW 1011,6 20 34 0,0
17.10.2018 16:00:00 23,2 7,3 9 5 19 10 WNW 1011,6 20 60 0,0
17.10.2018 15:00:00 21,9 7,7 8 4 17 9 WNW 1012,4 20 60 0,0
17.10.2018 14:00:00 20,7 8,7 6 3 13 7 N 1013,9 18 52 -
17.10.2018 13:00:00 18,4 8,9 6 3 15 8 NE 1015,5 19 50 0,0
17.10.2018 12:00:00 17,9 10,0 3 2 8 5 WNW 1016,1 18 60 0,0
17.10.2018 11:00:00 15,0 9,6 8 4 13 7 E 1017,5 1,1 60 0,0
17.10.2018 10:00:00 11,0 7,8 6 3 15 8 E 1018,9 13 52 0,0
17.10.2018 09:00:00 8,4 6,7 10 6 14 8 E 1019,4 7 24 0,0
17.10.2018 08:00:00 7,6 6,1 9 5 17 9 E 1019,4 8 0 -
17.10.2018 07:00:00 8,3 6,5 9 5 14 7 E 1019,2 15 0 0,0
17.10.2018 06:00:00 9,0 7,0 9 5 14 8 E 1019,0 17 0 0,0
17.10.2018 05:00:00 9,0 7,0 7 4 10 6 E 1018,9 17 0 0,0
17.10.2018 04:00:00 10,1 8,3 6 4 10 5 E 1018,5 18 0 0,0
17.10.2018 03:00:00 11,0 8,9 7 4 9 5 SE 1018,4 11 0 0,0
17.10.2018 02:00:00 12,9 9,9 3 2 11 6 SSW 1017,8 20 0 -
17.10.2018 01:00:00 14,1 10,5 6 3 15 8 SSW 1017,6 20 0 0,0
17.10.2018 00:00:00 14,0 10,2 8 5 21 12 SSW 1017,8 20 0 0,0
16.10.2018 23:00:00 14,8 9,8 11 6 22 12 SSW 1017,2 20 0 0,0
16.10.2018 22:00:00 15,5 8,7 11 6 24 13 SSW 1016,6 20 0 0,0
16.10.2018 21:00:00 17,4 9,0 13 7 30 16 SSW 1015,3 20 0 0,0
16.10.2018 20:00:00 19,3 6,4 7 4 11 6 W 1014,1 20 8 -
16.10.2018 19:00:00 20,4 6,4 7 4 12 6 W 1013,1 20 31 0,0
16.10.2018 18:00:00 20,3 7,0 5 3 16 9 S 1012,8 20 14 0,0
16.10.2018 17:00:00 20,4 7,4 11 6 25 13 S 1012,6 20 24 0,0
16.10.2018 16:00:00 20,5 6,4 9 5 26 14 SW 1012,4 20 44 0,0
16.10.2018 15:00:00 20,6 5,8 14 7 27 14 SSW 1012,4 20 60 0,0
16.10.2018 14:00:00 19,6 6,4 17 9 32 17 SSE 1012,6 8 60 -
16.10.2018 13:00:00 18,3 7,1 13 7 29 15 SSW 1013,4 14 59 0,0
16.10.2018 12:00:00 16,8 8,5 16 9 30 16 S 1013,7 20 60 0,0
16.10.2018 11:00:00 15,1 7,6 13 7 19 11 SE 1014,3 20 60 0,0
16.10.2018 10:00:00 11,7 7,0 11 6 16 9 SE 1014,8 20 57 0,0
16.10.2018 09:00:00 8,5 6,2 11 6 17 9 ESE 1014,7 20 3 0,0
16.10.2018 08:00:00 7,5 5,8 11 6 16 9 ESE 1014,2 20 0 -
16.10.2018 07:00:00 8,8 6,5 5 3 9 5 ESE 1013,3 20 0 0,0
16.10.2018 06:00:00 9,0 7,0 7 4 15 8 ESE 1013,2 20 0 0,0
16.10.2018 05:00:00 9,3 7,3 9 5 15 8 E 1012,9 19 0 0,0
16.10.2018 04:00:00 9,7 7,8 6 3 11 6 ESE 1012,8 19 0 0,0
16.10.2018 03:00:00 10,1 8,4 8 4 12 6 E 1013,1 17 0 0,0
16.10.2018 02:00:00 10,2 7,4 6 3 11 6 E 1013,5 18 0 -
16.10.2018 01:00:00 10,4 6,8 7 4 9 5 E 1013,7 18 0 0,0
16.10.2018 00:00:00 10,5 6,2 5 3 10 5 E 1013,5 18 0 0,0
15.10.2018 23:00:00 10,7 6,4 4 2 9 5 ESE 1012,8 20 0 0,0
15.10.2018 22:00:00 10,9 6,8 5 3 10 6 ESE 1012,7 20 0 0,0
15.10.2018 21:00:00 11,3 6,4 3 2 9 5 ESE 1011,9 1,9 0 0,0
15.10.2018 20:00:00 12,1 6,5 7 4 29 16 NNE 1011,7 20 0 -
15.10.2018 19:00:00 12,4 6,8 25 14 36 19 NNE 1012,0 16 0 0,0
15.10.2018 18:00:00 13,8 6,8 23 13 41 22 N 1011,0 20 0 0,0
15.10.2018 17:00:00 15,9 5,5 26 14 43 23 N 1009,8 20 44 0,0
15.10.2018 16:00:00 15,1 3,6 27 14 39 21 NNW 1009,9 20 33 0,0
15.10.2018 15:00:00 14,9 2,7 27 14 47 25 NNW 1010,3 16 60 0,0
15.10.2018 14:00:00 14,3 1,9 31 17 45 24 NNW 1011,1 20 13 -
15.10.2018 13:00:00 13,4 3,2 25 14 38 20 NNW 1011,7 20 54 0,0
15.10.2018 12:00:00 12,4 6,2 19 10 33 18 NW 1011,9 20 31 0,0
15.10.2018 11:00:00 10,2 6,5 22 12 31 17 NNW 1012,6 20 25 0,0
15.10.2018 10:00:00 9,3 6,4 22 12 29 16 N 1012,6 18 60 0,0
15.10.2018 09:00:00 7,1 5,9 17 9 24 13 N 1013,0 17 14 0,0
15.10.2018 08:00:00 7,1 5,6 16 9 22 12 N 1012,5 19 0 -
15.10.2018 07:00:00 7,9 5,3 16 8 25 14 N 1011,9 20 0 0,0
15.10.2018 06:00:00 8,8 5,3 14 8 26 14 NNW 1011,3 20 0 0,0
15.10.2018 05:00:00 9,6 5,6 18 10 33 18 N 1011,0 20 0 0,0
15.10.2018 04:00:00 10,5 5,6 23 12 34 18 N 1010,5 20 0 0,0
15.10.2018 03:00:00 11,0 5,5 20 11 35 19 N 1010,6 20 0 0,0
15.10.2018 02:00:00 11,4 5,9 21 11 29 16 N 1010,6 20 0 -
15.10.2018 01:00:00 11,3 5,6 19 11 31 17 N 1010,9 20 0 0,0
15.10.2018 00:00:00 10,2 5,6 17 9 23 12 N 1011,0 20 0 0,0
14.10.2018 23:00:00 10,6 5,3 12 7 20 11 N 1010,8 20 0 0,0
14.10.2018 22:00:00 11,9 5,3 16 9 35 19 N 1010,3 20 0 0,0
14.10.2018 21:00:00 12,3 5,6 27 15 36 19 N 1010,1 20 0 0,0
14.10.2018 20:00:00 12,4 5,6 16 9 39 21 N 1009,6 20 0 -
14.10.2018 19:00:00 13,5 5,1 25 14 41 22 N 1008,6 19 4 0,0
14.10.2018 18:00:00 14,1 6,2 29 16 50 27 N 1007,7 19 24 0,0
14.10.2018 17:00:00 16,9 3,9 37 20 55 30 NNW 1006,6 19 59 0,0
14.10.2018 16:00:00 15,5 8,7 29 15 42 23 NNW 1007,5 20 14 0,2

tt = temperature
td = dewpoint
ff = wind speed
fx = gusts
dd = wind direction
ppp = reduced air pressure
vv = visibility
sd = sunshine duration
rr = precipitation

Next stations